Weather History for KEZM - February, 2013

Change the Weather History Date:

Sunday, February 17, 2013

  Actual Average Record
Temperature  
Mean Temperature 40 °F -  
Max Temperature 51 °F 64 °F 75 °F (2014)
Min Temperature 28 °F 41 °F 28 °F (2013)
Degree Days  
Heating Degree Days 26    
Moisture  
Dew Point 13 °F    
Average Humidity 44    
Maximum Humidity 88    
Minimum Humidity 11    
Precipitation  
Precipitation 0.00 in - - ()
Sea Level Pressure  
Sea Level Pressure 30.29 in    
Wind  
Wind Speed 5 mph (WNW)    
Max Wind Speed 15 mph    
Max Gust Speed 21 mph    
Visibility 10 miles    
Events      
Averages and records for this station are not official NWS values.
T = Trace of Precipitation, MM = Missing Value Source: NWS Daily Summary

Daily Weather History Graph

Daily Weather History Graph

Search for Another Location

Airport or City:

Trip Planner

Search our weather history database for the weather conditions in past years. The results will help you decide how hot, cold, wet, or windy it might be!

Date:

Astronomy

Feb. 17, 2013 Rise Set
Actual Time 7:12 AM EST 6:20 PM EST
Civil Twilight 6:47 AM EST 6:45 PM EST
Nautical Twilight 6:19 AM EST 7:14 PM EST
Astronomical Twilight 5:50 AM EST 7:42 PM EST
Moon 11:32 AM EST (2/17) 12:48 AM EST (2/17)
Length of Visible Light 11h 57m
Length of Day
11h 07m
Waxing Crescent, 49% of the Moon is Illuminated
Feb 17
Waxing Crescent
Feb 17
First Quarter
Feb 25
Full
Mar 4
Last Quarter
Mar 11
New

Hourly Weather History & Observations

Time (EST) Temp. Windchill Dew Point Humidity Pressure Visibility Wind Dir Wind Speed Gust Speed Precip Events Conditions
12:15 AM 35.2 °F 31.2 °F 14.9 °F 43% 30.20 in 10.0 mi WNW 4.6 mph - N/A   Clear
12:35 AM 34.9 °F 29.9 °F 15.1 °F 44% 30.20 in 10.0 mi NW 5.8 mph - N/A   Clear
12:55 AM 34.7 °F 29.6 °F 15.4 °F 45% 30.20 in 10.0 mi NW 5.8 mph - N/A   Clear
1:15 AM 34.0 °F 31.0 °F 15.8 °F 47% 30.20 in 10.0 mi NW 3.5 mph - N/A   Clear
1:35 AM 33.3 °F 28.9 °F 16.7 °F 51% 30.21 in 10.0 mi WNW 4.6 mph - N/A   Clear
1:55 AM 32.9 °F 28.5 °F 17.2 °F 53% 30.21 in 10.0 mi WNW 4.6 mph - N/A   Clear
2:15 AM 32.5 °F 29.3 °F 17.8 °F 55% 30.21 in 10.0 mi NW 3.5 mph - N/A   Clear
2:35 AM 32.0 °F 27.5 °F 18.5 °F 58% 30.21 in 10.0 mi WNW 4.6 mph - N/A   Clear
2:55 AM 31.6 °F 28.3 °F 18.7 °F 59% 30.22 in 10.0 mi WNW 3.5 mph - N/A   Clear
3:15 AM 32.0 °F 28.7 °F 18.9 °F 58% 30.22 in 10.0 mi WNW 3.5 mph - N/A   Clear
3:35 AM 31.8 °F 27.3 °F 19.2 °F 60% 30.22 in 10.0 mi WNW 4.6 mph - N/A   Clear
3:55 AM 30.9 °F 27.5 °F 19.8 °F 63% 30.22 in 10.0 mi WNW 3.5 mph - N/A   Clear
4:15 AM 30.6 °F 27.1 °F 20.1 °F 65% 30.23 in 10.0 mi WNW 3.5 mph - N/A   Clear
4:35 AM 30.7 °F 26.0 °F 20.1 °F 65% 30.23 in 10.0 mi WNW 4.6 mph - N/A   Clear
4:55 AM 31.6 °F 26.0 °F 20.5 °F 63% 30.25 in 10.0 mi WNW 5.8 mph - N/A   Clear
5:15 AM 31.8 °F 25.4 °F 20.3 °F 62% 30.26 in 10.0 mi WNW 6.9 mph - N/A   Clear
5:35 AM 31.6 °F 27.0 °F 20.7 °F 64% 30.27 in 10.0 mi WNW 4.6 mph - N/A   Clear
5:55 AM 31.1 °F 26.4 °F 20.8 °F 66% 30.28 in 10.0 mi WNW 4.6 mph - N/A   Clear
6:15 AM 30.7 °F 26.0 °F 21.0 °F 67% 30.29 in 10.0 mi WNW 4.6 mph - N/A   Clear
6:35 AM 30.2 °F 26.7 °F 21.0 °F 69% 30.29 in 10.0 mi NNW 3.5 mph - N/A   Clear
6:55 AM 29.3 °F - 21.0 °F 71% 30.29 in 10.0 mi Calm Calm - N/A   Clear
7:15 AM 28.9 °F 25.2 °F 21.2 °F 73% 30.29 in 10.0 mi NW 3.5 mph - N/A   Clear
7:35 AM 29.3 °F 25.6 °F 21.2 °F 72% 30.30 in 10.0 mi WNW 3.5 mph - N/A   Clear
7:55 AM 30.4 °F - 21.6 °F 70% 30.32 in 10.0 mi Calm Calm - N/A   Clear
8:15 AM 31.8 °F 27.3 °F 21.6 °F 66% 30.32 in 10.0 mi WNW 4.6 mph - N/A   Clear
8:55 AM 34.7 °F 28.1 °F 19.2 °F 53% 30.34 in 10.0 mi NNW 8.1 mph - N/A   Clear
9:15 AM 36.0 °F 29.6 °F 16.2 °F 45% 30.35 in 10.0 mi NNW 8.1 mph - N/A   Clear
9:35 AM 37.6 °F 31.0 °F 11.7 °F 34% 30.35 in 10.0 mi NW 9.2 mph 16.1 mph N/A   Clear
9:55 AM 39.0 °F 34.0 °F 9.3 °F 29% 30.36 in 10.0 mi NNW 6.9 mph - N/A   Clear
10:15 AM 39.6 °F 33.5 °F 7.7 °F 27% 30.35 in 10.0 mi North 9.2 mph - N/A   Clear
10:35 AM 40.6 °F 37.5 °F 5.5 °F 23% 30.35 in 10.0 mi North 4.6 mph - N/A   Clear
10:55 AM 41.9 °F 39.0 °F 3.2 °F 20% 30.35 in 10.0 mi NW 4.6 mph - N/A   Clear
11:15 AM 42.8 °F 37.5 °F -0.2 °F 17% 30.35 in 10.0 mi WNW 9.2 mph 18.4 mph N/A   Clear
11:35 AM 44.4 °F 42.0 °F 1.0 °F 17% 30.35 in 10.0 mi NW 4.6 mph - N/A   Clear
11:55 AM 45.0 °F 39.7 °F -0.9 °F 15% 30.35 in 10.0 mi NW 10.4 mph - N/A   Clear
12:15 PM 45.5 °F 41.3 °F -0.8 °F 15% 30.33 in 10.0 mi WNW 8.1 mph 16.1 mph N/A   Clear
12:35 PM 48.0 °F - -1.5 °F 13% 30.33 in 10.0 mi West 10.4 mph 16.1 mph N/A   Clear
12:55 PM 47.7 °F - -1.1 °F 13% 30.33 in 10.0 mi NW 15.0 mph 20.7 mph N/A   Clear
1:15 PM 47.7 °F - -0.8 °F 13% 30.31 in 10.0 mi WNW 5.8 mph 17.3 mph N/A   Clear
1:35 PM 48.6 °F - -3.6 °F 11% 30.30 in 10.0 mi WNW 12.7 mph - N/A   Clear
1:55 PM 49.1 °F - -2.2 °F 12% 30.30 in 10.0 mi WNW 9.2 mph 18.4 mph N/A   Clear
2:15 PM 49.6 °F - -0.8 °F 13% 30.29 in 10.0 mi West 8.1 mph - N/A   Clear
2:35 PM 50.7 °F - 0.1 °F 13% 30.28 in 10.0 mi NW 6.9 mph 16.1 mph N/A   Clear
2:55 PM 50.7 °F - 1.2 °F 13% 30.28 in 10.0 mi West 10.4 mph 17.3 mph N/A   Clear
3:15 PM 50.5 °F - 0.1 °F 13% 30.28 in 10.0 mi WSW 10.4 mph 17.3 mph N/A   Clear
3:35 PM 50.4 °F - 0.3 °F 13% 30.28 in 10.0 mi WNW 12.7 mph 17.3 mph N/A   Clear
3:55 PM 51.3 °F - 1.0 °F 13% 30.27 in 10.0 mi NW 10.4 mph 16.1 mph N/A   Clear
4:15 PM 50.9 °F - 0.3 °F 13% 30.27 in 10.0 mi NW 6.9 mph - N/A   Clear
4:35 PM 51.4 °F - 1.6 °F 13% 30.27 in 10.0 mi West 8.1 mph - N/A   Clear
4:55 PM 50.9 °F - 0.5 °F 13% 30.27 in 10.0 mi WNW 6.9 mph - N/A   Clear
5:15 PM 50.2 °F - 0.1 °F 13% 30.27 in 10.0 mi West 4.6 mph - N/A   Clear
5:35 PM 50.0 °F - 1.6 °F 14% 30.28 in 10.0 mi West 6.9 mph - N/A   Clear
5:55 PM 48.6 °F - 3.4 °F 16% 30.28 in 10.0 mi West 6.9 mph - N/A   Clear
6:15 PM 47.3 °F - 4.8 °F 18% 30.29 in 10.0 mi West 5.8 mph - N/A   Clear
6:35 PM 45.7 °F 44.4 °F 7.7 °F 21% 30.29 in 10.0 mi West 3.5 mph - N/A   Clear
6:55 PM 44.2 °F 42.7 °F 9.5 °F 24% 30.30 in 10.0 mi West 3.5 mph - N/A   Clear
7:15 PM 42.8 °F 41.1 °F 12.9 °F 30% 30.30 in 10.0 mi SSW 3.5 mph - N/A   Clear
7:35 PM 40.6 °F - 18.0 °F 40% 30.30 in 10.0 mi Calm Calm - N/A   Clear
7:55 PM 35.6 °F - 19.8 °F 53% 30.31 in 10.0 mi Calm Calm - N/A   Clear
8:15 PM 35.8 °F - 23.4 °F 61% 30.32 in 10.0 mi Calm Calm - N/A   Clear
8:35 PM 35.6 °F - 23.0 °F 60% 30.32 in 10.0 mi Calm Calm - N/A   Clear
8:55 PM 34.5 °F - 23.9 °F 65% 30.33 in 10.0 mi Calm Calm - N/A   Clear
9:15 PM 33.3 °F - 25.0 °F 72% 30.34 in 10.0 mi Calm Calm - N/A   Clear
9:35 PM 33.3 °F - 27.3 °F 79% 30.34 in 10.0 mi Calm Calm - N/A   Clear
9:55 PM 32.9 °F - 26.6 °F 78% 30.35 in 10.0 mi Calm Calm - N/A   Clear
10:15 PM 31.3 °F - 26.2 °F 82% 30.35 in 10.0 mi Calm Calm - N/A   Clear
10:35 PM 31.6 °F - 26.4 °F 81% 30.36 in 10.0 mi Calm Calm - N/A   Clear
10:55 PM 31.1 °F - 26.6 °F 83% 30.36 in 10.0 mi Calm Calm - N/A   Clear
11:15 PM 31.5 °F - 28.2 °F 88% 30.36 in 10.0 mi Calm Calm - N/A   Clear
11:35 PM 30.2 °F - 25.7 °F 83% 30.35 in 10.0 mi Calm Calm - N/A   Clear
11:55 PM 31.6 °F - 27.5 °F 85% 30.36 in 10.0 mi Calm Calm - N/A   Clear